This demonstration page uses our WeatherBlox Daily Observations layout. Learn more.

Left ArrowRight Arrow

41.12389, -100.76542

Hourly Observations for January 22, 2019

Temp ( °F °C ) Dew Point ( °F °C ) Humidity (%) Winds ( mph kmh ) Pressure ( in mb ) Visibility ( mi km ) Precip ( " mm )
12:25 am 00:25 Cloudy 24 -4.4 21 -6.1 88 88 N 10 17 29.85 1011 9 14 0.00 0.00
12:53 am 00:53 Cloudy 24 -4.4 21 -6.1 88 88 N 13 20 29.81 1009 9 14 0.00 0.00
1:17 am 01:17 Cloudy 24 -4.4 21 -6.1 88 88 N 7 11 29.88 1012 10 16 0.00 0.00
1:53 am 01:53 Cloudy 25 -3.9 22 -5.6 88 88 N 7 11 29.87 1012 9 14 0.00 0.00
2:13 am 02:13 Cloudy 26 -3.3 23 -5 88 88 N 15 24 29.94 1014 7 11 0.00 0.00
2:53 am 02:53 Cloudy 23 -5 20 -6.7 88 88 N 24 39 29.90 1013 10 16 0.00 0.00
3:16 am 03:16 Cloudy 22 -5.6 18 -7.8 85 85 N 21 33 30.00 1016 10 16 0.00 0.00
3:53 am 03:53 Cloudy 20 -6.7 15 -9.4 81 81 N 15 24 29.95 1014 10 16 0.00 0.00
4:53 am 04:53 Cloudy 18 -7.8 12 -11.1 77 77 N 23 37 29.97 1015 10 16 0.00 0.00
5:07 am 05:07 Cloudy 17 -8.3 11 -11.7 77 77 N 18 30 30.06 1018 10 16 0.00 0.00
5:53 am 05:53 Partly Cloudy 16 -8.9 9 -12.8 74 74 NNE 20 31 30.02 1017 10 16 0.00 0.03
6:44 am 06:44 Cloudy with Light Snow 16 -8.9 10 -12.2 77 77 N 14 22 30.15 1021 3 4 0.00 0.03
6:51 am 06:51 Cloudy with Light Snow 16 -9 10 -12 79 79 N 16 26 30.15 1021 1 2 0.00 0.03
6:53 am 06:53 Mostly Cloudy with Light Snow 15 -9.4 10 -12.2 80 80 N 16 26 30.04 1017 1 2 0.00 0.03
7:02 am 07:02 Mostly Cloudy with Light Snow 15 -9.4 10 -12.2 80 80 N 15 24 30.15 1021 1 1 0.01 0.25
7:16 am 07:16 Mostly Cloudy with Snow 15 -9.4 11 -11.7 84 84 N 16 26 30.15 1021 1 1 0.02 0.51
7:53 am 07:53 Mostly Cloudy with Light Snow 14 -10 10 -12.2 84 84 N 16 26 30.09 1019 1 1 0.06 1.52
8:03 am 08:03 Mostly Cloudy with Light Snow 14 -10 9 -12.8 80 80 N 16 26 30.18 1022 1 2 0.01 0.25
8:36 am 08:36 Mostly Cloudy with Light Snow 14 -10 9 -12.8 80 80 N 17 28 30.24 1024 1 2 0.02 0.51
8:51 am 08:51 Windy with Snow Likely 14 -10 9 -13 79 79 N 21 33 30.24 1024 1 2 0.03 0.76
8:53 am 08:53 Windy with Snow Likely 14 -10 9 -12.8 80 80 NNE 25 41 30.11 1020 2 2 0.03 0.76
9:20 am 09:20 Windy with Snow Likely 15 -9.4 9 -12.8 77 77 N 21 33 30.21 1023 1 2 0.00 0.03
9:28 am 09:28 Mostly Cloudy with Light Snow 15 -9.4 9 -12.8 77 77 N 20 31 30.21 1023 1 2 0.00 0.03
9:33 am 09:33 Mostly Cloudy with Light Snow 15 -9.4 9 -12.8 77 77 N 17 28 30.21 1023 1 1 0.00 0.03
9:53 am 09:53 Mostly Cloudy with Snow 15 -9.4 10 -12.2 80 80 NNE 14 22 30.14 1021 1 1 0.02 0.51
10:14 am 10:14 Mostly Cloudy with Light Snow 16 -8.9 10 -12.2 77 77 NNE 15 24 30.24 1024 1 2 0.00 0.03
10:22 am 10:22 Mostly Cloudy with Light Snow 16 -8.9 10 -12.2 77 77 N 15 24 30.24 1024 1 1 0.00 0.03
10:33 am 10:33 Mostly Cloudy with Light Snow 16 -8.9 10 -12.2 77 77 NNE 17 28 30.27 1025 1 2 0.01 0.25
10:45 am 10:45 Mostly Cloudy with Light Snow 16 -8.9 10 -12.2 77 77 NNE 17 28 30.27 1025 1 1 0.01 0.25
10:53 am 10:53 Mostly Cloudy with Light Snow 17 -8.3 11 -11.7 77 77 NNE 18 30 30.17 1022 1 1 0.01 0.25
11:15 am 11:15 Mostly Cloudy with Light Snow 17 -8.3 11 -11.7 77 77 NNE 16 26 30.27 1025 1 2 0.00 0.03
11:30 am 11:30 Cloudy with Light Snow 18 -7.8 12 -11.1 77 77 NNE 18 30 30.27 1025 1 2 0.00 0.03
11:53 am 11:53 Windy with Snow Likely 19 -7.2 12 -11.1 74 74 N 20 31 30.17 1022 1 2 0.00 0.03
12:45 pm 12:45 Windy with Snow Likely 19 -7.2 12 -11.1 74 74 NNE 20 31 30.27 1025 2 2 0.00 0.03
12:53 pm 12:53 Cloudy with Light Snow 19 -7.2 13 -10.6 77 77 N 16 26 30.17 1022 2 3 0.00 0.03
1:15 pm 13:15 Cloudy with Light Snow 20 -6.7 13 -10.6 74 74 N 18 30 30.24 1024 3 4 0.00 0.03
1:27 pm 13:27 Cloudy with Light Snow 21 -6.1 14 -10 74 74 N 18 30 30.24 1024 3 5 0.00 0.03
1:53 pm 13:53 Windy with Snow Likely 21 -6.1 12 -11.1 68 68 N 26 43 30.15 1021 4 6 0.00 0.03
2:53 pm 14:53 Windy with Snow Likely 22 -5.6 13 -10.6 68 68 N 23 37 30.14 1021 6 10 0.00 0.03
3:53 pm 15:53 Cloudy 24 -4.4 14 -10 65 65 N 24 39 30.15 1021 10 16 0.00 0.03
4:53 pm 16:53 Cloudy 23 -5 15 -9.4 72 72 NNE 24 39 30.17 1022 10 16 0.00 0.00
5:53 pm 17:53 Cloudy 23 -5 16 -8.9 74 74 N 10 17 30.19 1022 10 16 0.00 0.00
6:53 pm 18:53 Cloudy 23 -5 15 -9.4 72 72 N 12 19 30.20 1023 10 16 0.00 0.00
7:53 pm 19:53 Cloudy 24 -4.4 16 -8.9 71 71 N 14 22 30.21 1023 10 16 0.00 0.00
8:41 pm 20:41 Partly Cloudy 21 -6.1 15 -9.4 78 78 N 8 13 30.27 1025 10 16 0.00 0.00
8:53 pm 20:53 Clear 16 -8.9 11 -11.7 80 80 NNW 8 13 30.22 1023 10 16 0.00 0.00
9:53 pm 21:53 Clear 10 -12.2 7 -13.9 87 87 NNW 9 15 30.22 1023 10 16 0.00 0.00
10:53 pm 22:53 Clear 11 -11.7 9 -12.8 92 92 NNW 7 11 30.21 1023 10 16 0.00 0.00
11:53 pm 23:53 Clear 9 -12.8 6 -14.4 88 88 WNW 7 11 30.21 1023 10 16 0.00 0.00

Powered by AerisWeather